Regional Weather Roundup
Issued by NWS

Home | Current Version | Previous Version | Graphics & Text | Print | Product List | Glossary On
Versions: 1 2 3 4 5 6 7 8 9 10 11 12 13 14 15 16 17 18 19 20 21 22 23 24 25 26 27 28 29 30 31 32 33 34 35 36 37 38 39 40 41 42 43 44 45 46 47 48 49 50
000
ASUS43 KBIS 272020
RWRND

NORTH DAKOTA REGIONAL WEATHER ROUNDUP
NATIONAL WEATHER SERVICE BISMARCK ND
300 PM CDT WED AUG 27 2014

NOTE: "FAIR" INDICATES FEW OR NO CLOUDS BELOW 12,000 FEET WITH NO
SIGNIFICANT WEATHER AND/OR OBSTRUCTIONS TO VISIBILITY.


NDZ001>003-009>011-017-272100-
NORTHWEST NORTH DAKOTA

CITY           SKY/WX    TMP DP  RH WIND       PRES   REMARKS
WILLISTON      SUNNY     82  52  35 SE8       30.02F
MINOT          SUNNY     76  53  44 S12       30.06F
MINOT AFB      SUNNY     75  55  49 S8        30.05F
$$

NDZ018>021-031>035-040>046-272100-
SOUTHWEST NORTH DAKOTA

CITY           SKY/WX    TMP DP  RH WIND       PRES   REMARKS
BISMARCK       SUNNY     76  58  53 S7        30.11F
DICKINSON      SUNNY     76  56  49 SE10      30.07F
GARRISON         N/A     74  58  57 S9        30.08F
HETTINGER ARPT MOSUNNY   74  57  55 SE8       30.11F
$$

NDZ004>008-012>016-024-026-027-054-272100-
NORTHEAST NORTH DAKOTA

CITY           SKY/WX    TMP DP  RH WIND       PRES   REMARKS
GRAND FORKS    MOSUNNY   73  52  47 SW3       30.13F
GRND FRKS AFB  MOSUNNY   74  54  50 SW9       30.14F
DEVILS LAKE    PTSUNNY   73  55  53 SW8       30.10F
$$

NDZ022-023-025-028>030-036>039-047>053-272100-
SOUTHEAST NORTH DAKOTA

CITY           SKY/WX    TMP DP  RH WIND       PRES   REMARKS
FARGO          MOSUNNY   74  59  59 S10       30.14F
JAMESTOWN      PTSUNNY   71  58  63 SE10      30.13F
$$




USA.gov is the U.S. government's official web portal to all federal, state and local government web resources and services.